Location: St. Louis
(38.6270°N, 90.1994°W)
Time: 11:00:46
(UTC-06:00)

Tiros 1 despin weight - Pass Details

Date: 05 December 2021
Orbit: 592 x 641 km, 48.2° (Epoch: 25 January)

Event Time Altitude Azimuth Distance (km) Brightness Sun altitude
Rises 17:49:53 0° 303° (WNW) 2,824 ? -13.5°
Reaches altitude 10° 17:52:11 10° 306° (NW) 1,922 ? -13.9°
Maximum altitude 17:56:34 70° 30° (NNE) 632 ? -14.7°
Enters shadow 17:59:40 19° 112° (ESE) 1,426 ? -15.3°
